This is the latest recevied weather packets stored in our database for station/object KD2DXJ. If no packets are shown the sender has not sent any weather packets the latest 10 day(s).
| Time | Temp. | Humidity | Pressure | Rain* | Wind** | Luminosity | Snow |
|---|---|---|---|---|---|---|---|
| 1777549828 | 5.56° C | 99% | 1007 hPa | 0 mm | - | 21 W/m² | - |
| 1777549524 | 5.56° C | 99% | 1007.1 hPa | 0 mm | - | 19 W/m² | - |
| 1777549221 | 5.56° C | 99% | 1006.7 hPa | 0 mm | - | 15 W/m² | - |
| 1777548917 | 5.56° C | 99% | 1006.9 hPa | 0 mm | - | 15 W/m² | - |
| 1777548615 | 5.56° C | 99% | 1006.7 hPa | 0 mm | - | 19 W/m² | - |
| 1777548311 | 5.56° C | 99% | 1006.7 hPa | 0 mm | - | 14 W/m² | - |
| 1777548009 | 5.56° C | 99% | 1006.7 hPa | 0 mm | - | 15 W/m² | - |
| 1777547703 | 5.56° C | 99% | 1006.6 hPa | 0 mm | - | 10 W/m² | - |
| 1777547400 | 5.56° C | 99% | 1006.6 hPa | 0 mm | - | 10 W/m² | - |
| 1777547098 | 5.56° C | 99% | 1006.2 hPa | 0 mm | - | 9 W/m² | - |
| 1777546795 | 5.56° C | 99% | 1006.1 hPa | 0 mm | - | 13 W/m² | - |
| 1777546492 | 5.56° C | 99% | 1006.1 hPa | 0 mm | - | 11 W/m² | - |
| 1777546189 | 6.11° C | 99% | 1006.1 hPa | 0 mm | - | 8 W/m² | - |
| 1777545885 | 6.11° C | 99% | 1006 hPa | 0 mm | - | 6 W/m² | - |
| 1777545582 | 5.56° C | 99% | 1005.8 hPa | 0 mm | - | 6 W/m² | - |
| 1777545278 | 5.56° C | 99% | 1006 hPa | 0 mm | - | 7 W/m² | - |
| 1777544976 | 5.56° C | 99% | 1005.7 hPa | 0 mm | - | 4 W/m² | - |
| 1777544672 | 5.56° C | 99% | 1005.8 hPa | 0 mm | - | 3 W/m² | - |
| 1777544368 | 6.11° C | 99% | 1005.8 hPa | 0 mm | - | 2 W/m² | - |
| 1777544065 | 6.11° C | 99% | 1005.7 hPa | 0 mm | - | 3 W/m² | - |
| 1777543763 | 6.11° C | 99% | 1005.5 hPa | 0 mm | - | 2 W/m² | - |
| 1777543458 | 6.11° C | 99% | 1005.4 hPa | 0 mm | - | 1 W/m² | - |
| 1777543154 | 6.11° C | 99% | 1005.3 hPa | 0 mm | - | 1 W/m² | - |
| 1777542850 | 6.67° C | 99% | 1005.6 hPa | 0 mm | - | 0 W/m² | - |
| 1777542548 | 6.67° C | 99% | 1005.5 hPa | 0 mm | - | 0 W/m² | - |
* Rain latest hour (hover to see other rain measurements)
** Current wind speed in m/s (hover to see current wind gust speed)